Location: Beverley
(50.2667°N, 107.9667°W)
Time: 02:31:39
(UTC+00:00)

CAS-4B - Visible Passes

Search period start: 02 July 2022 00:00
Search period end: 12 July 2022 00:00
Orbit: 523 x 536 km, 43.0° (Epoch: 01 July)

Date Brightness Start Highest point End Pass type
(mag) Time Alt. Az. Time Alt. Az. Time Alt. Az.
02 Jul ? 08:54:16 16° SSE 08:54:40 16° SSE 08:57:08 10° ESE visible
03 Jul ? 08:42:03 18° SSE 08:42:05 18° SSE 08:44:50 10° ESE visible
03 Jul ? 10:17:52 10° SW 10:21:22 29° S 10:24:54 10° ESE visible
04 Jul ? 08:29:50 19° SSE 08:29:50 19° SSE 08:32:27 10° ESE visible
04 Jul ? 10:05:19 10° WSW 10:08:50 29° S 10:12:23 10° ESE visible
05 Jul ? 08:17:38 20° SSE 08:17:38 20° SSE 08:20:03 10° ESE visible
05 Jul ? 09:52:49 10° WSW 09:56:18 29° S 09:59:50 10° ESE visible
06 Jul ? 08:05:28 20° SE 08:05:28 20° SE 08:07:37 10° ESE visible
06 Jul ? 09:40:39 12° WSW 09:43:45 29° S 09:47:17 10° ESE visible
07 Jul ? 07:53:22 19° SE 07:53:22 19° SE 07:55:08 10° ESE visible
07 Jul ? 09:28:34 15° WSW 09:31:12 28° S 09:34:42 10° SE visible
08 Jul ? 07:41:25 17° SE 07:41:25 17° SE 07:42:38 10° ESE visible
08 Jul ? 09:16:37 18° SW 09:18:39 27° S 09:22:07 10° SE visible
09 Jul ? 07:29:45 12° ESE 07:29:45 12° ESE 07:30:08 10° ESE visible
09 Jul ? 09:04:59 23° SW 09:06:05 26° S 09:09:29 10° SE visible
10 Jul ? 08:53:58 24° S 08:53:58 24° S 08:56:50 10° SE visible
11 Jul ? 05:19:29 10° SSW 05:19:50 11° SSW 05:19:50 11° SSW visible
11 Jul ? 08:44:01 11° SE 08:44:01 11° SE 08:44:10 10° SE visible
